Date String (YYYY-MM-DD hh:mm:ss) UTC,Instrument flags,Ambient pressure (hPa),Sample flow (lpm),Bypass flow (lpm),Sample temperature (°C),Ambient temperature (°C),ASC tube jacket temperature (°C),LED temperature (°C),Box temperature (°C),Sample RH (%),Span deviation,Mass concentration (μg/m³),Mass concentration (μg/m³),Mass concentration (μg/m³)
DateTimeUTC,F1_M11,P_M11,Q1_M11,Q2_M11,T1_M11,T2_M11,T3_M11,T4_M11,T5_M11,U1_M11,ZSPAN_M11,X0_M11,X2_M11,X1_M11
2022-03-19 23:00:00,,0823.7,5.02,0.00,26.6,25.9,00.0,35.6,28.4,07.9,0000.0,0014.70,0005.09,0003.18
2022-03-19 23:01:00,,0823.7,5.00,0.00,26.6,25.9,00.0,35.6,28.4,07.9,0000.0,0014.52,0005.07,0003.18
2022-03-19 23:02:00,,0823.6,4.99,0.00,26.7,25.9,00.0,35.6,28.4,07.9,0000.0,0014.47,0005.10,0003.17
2022-03-19 23:03:00,,0823.6,4.99,0.00,26.7,25.9,00.0,35.6,28.4,07.8,0000.0,0014.97,0005.16,0003.17
2022-03-19 23:04:00,,0823.6,5.02,0.00,26.7,25.9,00.0,35.6,28.5,07.6,0000.0,0014.91,0005.25,0003.18
2022-03-19 23:05:00,,0823.6,4.99,0.00,26.7,26.0,00.0,35.6,28.5,07.8,0000.0,0015.20,0005.21,0003.18
2022-03-19 23:06:00,,0823.6,5.00,0.00,26.7,25.9,00.0,35.6,28.5,07.8,0000.0,0015.66,0005.16,0003.17
2022-03-19 23:07:00,,0823.6,5.01,0.00,26.7,25.9,00.0,35.6,28.5,07.9,0000.0,0014.95,0005.13,0003.16
2022-03-19 23:08:00,,0823.6,5.00,0.00,26.7,26.0,00.0,35.6,28.5,07.9,0000.0,0014.45,0005.13,0003.17
2022-03-19 23:09:00,,0823.6,4.99,0.00,26.7,26.0,00.0,35.7,28.5,07.9,0000.0,0013.40,0005.09,0003.16
2022-03-19 23:10:00,,0823.6,5.01,0.00,26.8,26.0,00.0,35.7,28.5,08.0,0000.0,0013.06,0005.09,0003.17
2022-03-19 23:11:00,,0823.6,5.00,0.00,26.8,26.1,00.0,35.7,28.5,08.1,0000.0,0012.50,0005.06,0003.17
2022-03-19 23:12:00,,0823.5,4.99,0.00,26.8,26.1,00.0,35.7,28.6,08.1,0000.0,0012.34,0005.04,0003.16
2022-03-19 23:13:00,,0823.5,5.00,0.00,26.8,26.1,00.0,35.7,28.6,08.3,0000.0,0012.35,0005.02,0003.16
2022-03-19 23:14:00,,0823.5,5.00,0.00,26.8,26.1,00.0,35.7,28.6,08.3,0000.0,0011.96,0004.97,0003.18
2022-03-19 23:15:00,,0823.5,5.00,0.00,26.8,26.1,00.0,35.7,28.7,08.4,0000.0,0011.85,0004.89,0003.19
2022-03-19 23:16:00,,0823.6,5.01,0.00,26.8,26.2,00.0,35.7,28.7,08.2,0000.0,0011.51,0004.88,0003.19
2022-03-19 23:17:00,,0823.6,5.00,0.00,26.9,26.2,00.0,35.7,28.7,08.2,0000.0,0010.76,0004.87,0003.19
2022-03-19 23:18:00,,0823.6,4.98,0.00,26.9,26.2,00.0,35.7,28.7,08.2,0000.0,0010.83,0004.88,0003.19
2022-03-19 23:19:00,,0823.6,4.99,0.00,26.9,26.2,00.0,35.8,28.7,08.2,0000.0,0011.07,0004.93,0003.20
2022-03-19 23:20:00,,0823.6,5.02,0.00,26.9,26.2,00.0,35.8,28.8,08.3,0000.0,0012.09,0004.97,0003.21
2022-03-19 23:21:00,,0823.6,5.00,0.00,26.9,26.2,00.0,35.8,28.8,08.3,0000.0,0012.30,0004.95,0003.22
2022-03-19 23:22:00,,0823.7,4.99,0.00,27.0,26.2,00.0,35.8,28.8,08.2,0000.0,0012.39,0004.96,0003.21
2022-03-19 23:23:00,,0823.7,4.99,0.00,27.0,26.3,00.0,35.8,28.8,08.2,0000.0,0012.41,0004.96,0003.21
2022-03-19 23:24:00,,0823.6,5.00,0.00,27.0,26.3,00.0,35.8,28.9,08.1,0000.0,0012.37,0004.92,0003.20
2022-03-19 23:25:00,,0823.6,5.00,0.00,27.0,26.3,00.0,35.8,28.9,08.2,0000.0,0012.68,0004.97,0003.19
2022-03-19 23:26:00,,0823.5,5.00,0.00,27.0,26.3,00.0,35.9,28.9,08.0,0000.0,0012.69,0004.99,0003.18
2022-03-19 23:27:00,,0823.5,5.00,0.00,27.1,26.4,00.0,35.9,28.9,08.1,0000.0,0012.93,0005.03,0003.16
2022-03-19 23:28:00,,0823.6,5.00,0.00,27.1,26.4,00.0,35.9,28.9,08.1,0000.0,0013.17,0005.12,0003.17
2022-03-19 23:29:00,,0823.5,5.00,0.00,27.1,26.4,00.0,35.9,29.0,07.9,0000.0,0013.26,0005.15,0003.18
2022-03-19 23:30:00,,0823.5,5.00,0.00,27.1,26.4,00.0,35.9,29.0,07.9,0000.0,0013.20,0005.13,0003.18
2022-03-19 23:31:00,,0823.5,5.00,0.00,27.1,26.4,00.0,35.9,28.9,07.8,0000.0,0012.25,0005.09,0003.18
2022-03-19 23:32:00,,0823.5,5.00,0.00,27.1,26.4,00.0,35.9,28.9,07.9,0000.0,0012.66,0005.13,0003.19
2022-03-19 23:33:00,,0823.5,5.00,0.00,27.1,26.3,00.0,36.0,28.9,08.1,0000.0,0012.50,0005.10,0003.19
2022-03-19 23:34:00,,0823.5,5.00,0.00,27.1,26.3,00.0,36.0,28.9,08.2,0000.0,0012.39,0005.07,0003.20
2022-03-19 23:35:00,,0823.4,5.00,0.00,27.1,26.3,00.0,36.0,28.9,08.4,0000.0,0012.45,0005.08,0003.21
2022-03-19 23:36:00,,0823.4,5.01,0.00,27.1,26.3,00.0,36.0,28.9,08.4,0000.0,0012.16,0005.04,0003.21
2022-03-19 23:37:00,,0823.4,5.01,0.00,27.1,26.3,00.0,36.0,28.9,08.3,0000.0,0013.51,0005.03,0003.20
2022-03-19 23:38:00,,0823.4,5.01,0.00,27.1,26.3,00.0,36.0,28.9,08.4,0000.0,0013.49,0005.02,0003.20
2022-03-19 23:39:00,,0823.5,4.99,0.00,27.1,26.2,00.0,36.0,28.9,08.3,0000.0,0013.27,0004.92,0003.19
2022-03-19 23:40:00,,0823.5,5.00,0.00,27.1,26.1,00.0,36.0,28.9,08.4,0000.0,0013.08,0004.83,0003.19
2022-03-19 23:41:00,,0823.5,5.02,0.00,27.1,26.2,00.0,36.0,28.9,08.4,0000.0,0012.91,0004.78,0003.18
2022-03-19 23:42:00,,0823.5,4.99,0.00,27.1,26.2,00.0,36.0,28.8,08.5,0000.0,0013.41,0004.81,0003.17
2022-03-19 23:43:00,,0823.5,4.99,0.00,27.1,26.2,00.0,36.0,28.8,08.5,0000.0,0013.26,0004.79,0003.17
2022-03-19 23:44:00,,0823.5,5.00,0.00,27.1,26.1,00.0,36.0,28.8,08.6,0000.0,0013.35,0004.85,0003.18
2022-03-19 23:45:00,,0823.5,4.99,0.00,27.1,26.2,00.0,36.0,28.9,08.7,0000.0,0013.27,0004.82,0003.18
2022-03-19 23:46:00,,0823.6,5.00,0.00,27.1,26.2,00.0,36.0,28.8,08.7,0000.0,0013.50,0004.79,0003.17
2022-03-19 23:47:00,,0823.6,5.00,0.00,27.1,26.1,00.0,36.0,28.8,08.8,0000.0,0013.46,0004.77,0003.18
2022-03-19 23:48:00,,0823.6,5.00,0.00,27.0,26.1,00.0,36.0,28.8,08.7,0000.0,0011.82,0004.73,0003.18
2022-03-19 23:49:00,,0823.6,5.00,0.00,27.0,26.1,00.0,36.0,28.8,08.8,0000.0,0011.63,0004.69,0003.18
2022-03-19 23:50:00,,0823.5,5.00,0.00,27.0,26.0,00.0,36.0,28.8,08.8,0000.0,0011.97,0004.72,0003.18
2022-03-19 23:51:00,,0823.5,5.00,0.00,27.0,26.1,00.0,36.0,28.8,08.7,0000.0,0012.27,0004.75,0003.17
2022-03-19 23:52:00,,0823.5,5.01,0.00,27.0,26.1,00.0,36.0,28.8,08.5,0000.0,0012.84,0004.77,0003.16
2022-03-19 23:53:00,,0823.5,5.01,0.00,27.0,26.1,00.0,36.0,28.7,08.3,0000.0,0012.18,0004.73,0003.16
2022-03-19 23:54:00,,0823.5,5.01,0.00,27.0,26.1,00.0,36.0,28.7,08.4,0000.0,0011.77,0004.71,0003.16
2022-03-19 23:55:00,,0823.5,5.00,0.00,27.0,26.0,00.0,36.0,28.7,08.5,0000.0,0011.85,0004.70,0003.14
2022-03-19 23:56:00,,0823.4,4.99,0.00,27.0,26.0,00.0,36.0,28.7,08.6,0000.0,0011.89,0004.72,0003.15
2022-03-19 23:57:00,,0823.4,5.00,0.00,27.0,25.9,00.0,36.0,28.7,08.6,0000.0,0011.65,0004.75,0003.15
2022-03-19 23:58:00,,0823.4,5.00,0.00,27.0,25.9,00.0,36.0,28.7,08.7,0000.0,0011.72,0004.80,0003.15
2022-03-19 23:59:00,,0823.5,5.01,0.00,27.0,25.9,00.0,36.0,28.7,08.6,0000.0,0011.83,0004.76,0003.16
